Location: Capvern
(43.1036°N, 0.3160°E)
Time: 04:40:57
(UTC+00:00)

CSL-04 Rocket - Pass Details

Date: 16 October 2021
Orbit: 805 x 860 km, 98.9° (Epoch: 02 December)

Event Time Altitude Azimuth Distance (km) Brightness Sun altitude
Exits shadow 19:30:14 42° 170° (S) 1,207 4.3 -25.5°
Maximum altitude 19:32:14 85° 256° (WSW) 863 3.6 -25.9°
Drops below altitude 10° 19:37:49 10° 345° (NNW) 2,504 6.5 -26.9°
Sets 19:40:13 0° 346° (NNW) 3,447 7.2 -27.3°
